Printer-friendly version

IAU Minor Planet Center

Minor Planet Center

MPEC 2001-C35: 2001 CC32

The following Minor Planet Electronic Circular may be linked-to from your own Web pages, but must not otherwise be redistributed electronically.


Read MPEC 2001-C34 Read MPEC 2001-C36


M.P.E.C. 2001-C35                                Issued 2001 Feb. 14, 19:25 UT

     The Minor Planet Electronic Circulars contain information on unusual
         minor planets and routine data on comets.  They are published
   on behalf of Commission 20 of the International Astronomical Union by the
          Minor Planet Center, Smithsonian Astrophysical Observatory,
                          Cambridge, MA 02138, U.S.A.

             Prepared using the Tamkin Foundation Computer Network

                              MPC@CFA.HARVARD.EDU
          URL http://cfa-www.harvard.edu/iau/mpc.html  ISSN 1523-6714

                                   2001 CC32

Observations:
     K01C32C* C2001 02 12.17179 08 19 48.28 +19 45 31.9          17.7 R      699
     K01C32C  C2001 02 12.18924 08 19 41.98 +19 44 00.5                      699
     K01C32C  C2001 02 12.20607 08 19 35.91 +19 42 32.4                      699
     K01C32C  C2001 02 12.22314 08 19 29.90 +19 41 05.9                      699
     K01C32C  C2001 02 12.87079 08 15 42.48 +18 43 37.6                      557
     K01C32C  C2001 02 12.87167 08 15 42.22 +18 43 33.9                      557
     K01C32C  C2001 02 12.87612 08 15 40.59 +18 43 09.7                      557
     K01C32C  C2001 02 12.87701 08 15 40.32 +18 43 04.8                      557
     K01C32C  C2001 02 12.90001 08 15 32.45 +18 41 04.4                      165
     K01C32C  C2001 02 12.91180 08 15 28.17 +18 40 03.0          17.3 R      165
     K01C32C  C2001 02 12.91711 08 15 26.26 +18 39 35.3                      165
     K01C32C  C2001 02 13.14516 08 14 07.53 +18 19 10.7          17.3 R      918
     K01C32C  C2001 02 13.14655 08 14 06.85 +18 19 03.9          17.5 R      918
     K01C32C  C2001 02 13.14836 08 14 06.24 +18 18 53.5          17.6 R      918
     K01C32C  C2001 02 13.15047 08 14 05.53 +18 18 44.0          17.9 R      918
     K01C32C  C2001 02 13.92649 08 09 37.10 +17 08 54.1                      118
     K01C32C  C2001 02 13.93190 08 09 35.19 +17 08 24.5                      118
     K01C32C  C2001 02 13.93460 08 09 34.19 +17 08 09.7          18.1 R      118
     K01C32C  C2001 02 13.96721 08 09 22.90 +17 05 12.2          18.4 V      557
     K01C32C  C2001 02 13.96833 08 09 22.53 +17 05 06.0                      557
     K01C32C  C2001 02 14.73216 08 05 04.82 +15 55 39.3                      557
     K01C32C  C2001 02 14.73304 08 05 04.54 +15 55 34.4                      557
     K01C32C  C2001 02 14.73572 08 05 03.60 +15 55 19.6                      557
     K01C32C  C2001 02 14.73661 08 05 03.30 +15 55 14.7          18.4 V      557
     K01C32C  C2001 02 14.75376 08 04 57.51 +15 53 41.3          17.6 R      046
     K01C32C  C2001 02 14.75512 08 04 57.01 +15 53 33.9                      046
     K01C32C  C2001 02 14.75900 08 04 55.69 +15 53 13.1                      046
     K01C32C  C2001 02 14.75964 08 04 55.50 +15 53 09.9                      046
     K01C32C  C2001 02 14.76039 08 04 55.23 +15 53 05.1          17.9 R      046

Observer details:
046 Klet.  Observer M. Tichy.  0.57-m f/5.2 reflector + CCD.
118 Modra.  Observers A. Galad, P. Koleny.  0.6-m f/5.5 reflector + CCD.
165 Piera Observatory, Barcelona.  Observer J. Guarro.  0.40-m f/2 Schmidt
    + CCD.
557 Ondrejov.  Observers P. Pravec, L. Sarounova.  0.65-m f/3.6 reflector + CCD.
699 Lowell Observatory-LONEOS.  Observer B. A. Skiff.  Measurer B. W. Koehn.
    0.59-m LONEOS Schmidt + CCD.
918 Badlands Observatory, Quinn.  Observer R. Dyvig.  0.66-m f/4.8 reflector
    + CCD.

Orbital elements:
2001 CC32
Epoch 2001 Jan. 31.0 TT = JDT 2451940.5                 Spahr
M 317.34668              (2000.0)            P               Q
n   0.46214002     Peri.  251.40177     -0.71888958     +0.54562960
a   1.6568645      Node   318.28047     -0.05609137     -0.66308719
e   0.3501129      Incl.   40.32848     -0.69285751     -0.51244875
P   2.13           H   19.1           G   0.15
From 29 observations 2001 Feb. 12-14.

Ephemeris:
2001 CC32                a,e,i = 1.66, 0.35, 40                  q = 1.0768
Date    TT    R. A. (2000) Decl.     Delta      r     Elong.  Phase     V
2001 02 10    08 32.74   +22 51.6    0.343    1.319   163.1    12.6    18.1
2001 02 20    07 37.46   +07 53.4    0.340    1.272   141.4    29.0    18.5
2001 03 02    06 57.58   -05 39.3    0.381    1.228   120.2    44.2    19.1
2001 03 12    06 32.97   -15 29.0    0.447    1.187   104.5    54.1    19.7
2001 03 22    06 19.19   -22 23.2    0.520    1.151    93.4    59.7    20.1
2001 04 01    06 12.48   -27 32.4    0.591    1.122    85.6    62.7    20.4
2001 04 11    06 10.20   -31 44.2    0.652    1.099    80.2    64.0    20.6
2001 04 21    06 10.78   -35 25.3    0.701    1.083    76.5    64.4    20.8
2001 05 01    06 13.48   -38 52.8    0.735    1.077    74.5    64.4    20.9
2001 05 11    06 17.96   -42 19.1    0.754    1.079    73.9    64.0    20.9
2001 05 21    06 24.42   -45 54.6    0.755    1.091    74.6    63.5    20.9
2001 05 31    06 33.59   -49 52.3    0.742    1.110    76.7    62.7    20.9
2001 06 10    06 46.88   -54 27.3    0.717    1.137    80.0    61.6    20.9
2001 06 20    07 07.55   -59 55.8    0.682    1.170    84.7    59.9    20.8
2001 06 30    07 43.79   -66 30.2    0.643    1.209    90.6    57.3    20.6
2001 07 10    09 01.4    -73 42.7    0.609    1.251    97.5    53.7    20.5
2001 07 20    12 07.2    -77 44.1    0.589    1.297   104.7    49.3    20.4
2001 07 30    15 17.7    -71 53.1    0.593    1.345   110.7    44.9    20.3
2001 08 09    16 40.49   -61 02.2    0.628    1.394   114.1    41.6    20.4
2001 08 19    17 22.25   -50 09.6    0.697    1.444   114.0    39.8    20.7
2001 08 29    17 49.90   -40 50.8    0.794    1.493   111.2    39.1    21.0
2001 09 08    18 11.64   -33 21.5    0.913    1.543   106.8    38.7    21.4
2001 09 18    18 30.59   -27 26.0    1.049    1.592   101.6    38.2    21.7

Timothy B. Spahr             (C) Copyright 2001 MPC           M.P.E.C. 2001-C35

Read MPEC 2001-C34 Read MPEC 2001-C36


Our Web policy. Index to the CBAT/MPC/ICQ pages.


Valid HTML 4.01!